FW6905 Weather Reports


Display with metric or nautical units.
time (UTC)temp
F
wind
direction
speed
MPH
gust
MPH
rain 1hr
in
rain 24hr
in
rain mn
in
humidity
%
barometer
mb
20260510173506 64 204 0.0 2.0 0.00 0.00 0.00 67 1013.7
20260510173005 64 228 1.0 4.0 0.00 0.00 0.00 66 1013.7
20260510172506 64 271 2.0 4.0 0.00 0.00 0.00 66 1013.7
20260510172006 64 273 3.0 4.0 0.00 0.00 0.00 66 1013.7
20260510171505 64 273 2.0 5.0 0.00 0.00 0.00 66 1013.7
20260510170505 64 302 5.0 6.0 0.00 0.00 0.00 64 1012.7
20260510170005 65 298 3.0 5.0 0.00 0.00 0.00 65 1012.7
20260510165005 65 206 0.0 2.0 0.00 0.00 0.00 62 1012.7
20260510164506 65 189 1.0 2.0 0.00 0.00 0.00 61 1012.7
20260510164005 65 10 2.0 2.0 0.00 0.00 0.00 61 1013.7
20260510163506 66 340 0.0 2.0 0.00 0.00 0.00 60 1013.7
20260510162005 66 50 0.0 4.0 0.00 0.00 0.00 58 1013.7
20260510161505 67 35 3.0 4.0 0.00 0.00 0.00 57 1013.7
20260510161005 67 217 0.0 2.0 0.00 0.00 0.00 57 1013.7
20260510160505 67 262 0.0 3.0 0.00 0.00 0.00 56 1013.7
20260510160006 68 294 1.0 3.0 0.00 0.00 0.00 54 1013.7
20260510155505 68 292 2.0 3.0 0.00 0.00 0.00 54 1013.7
20260510155006 68 227 0.0 2.0 0.00 0.00 0.00 53 1013.7
20260510154505 68 213 2.0 2.0 0.00 0.00 0.00 53 1013.7
20260510154006 68 296 0.0 2.0 0.00 0.00 0.00 51 1014.7
20260510153505 68 321 0.0 2.0 0.00 0.00 0.00 50 1014.7
20260510153006 69 322 0.0 3.0 0.00 0.00 0.00 50 1014.7
20260510152505 69 283 0.0 3.0 0.00 0.00 0.00 49 1014.7
20260510152005 69 245 2.0 4.0 0.00 0.00 0.00 48 1014.7
20260510151505 69 245 2.0 4.0 0.00 0.00 0.00 47 1014.7
20260510151006 69 229 1.0 3.0 0.00 0.00 0.00 47 1014.7
20260510150505 69 224 0.0 4.0 0.00 0.00 0.00 46 1014.7
20260510150006 69 210 2.0 4.0 0.00 0.00 0.00 45 1014.7
20260510145505 70 199 2.0 7.0 0.00 0.00 0.00 44 1014.7
20260510145005 70 194 4.0 7.0 0.00 0.00 0.00 43 1014.7
20260510144505 70 201 4.0 7.0 0.00 0.00 0.00 45 1014.7
20260510143506 71 200 3.0 4.0 0.00 0.00 0.00 43 1013.7
20260510143006 71 218 3.0 4.0 0.00 0.00 0.00 41 1013.7
20260510142505 71 251 2.0 5.0 0.00 0.00 0.00 42 1014.7
20260510142005 71 264 4.0 5.0 0.00 0.00 0.00 43 1014.7
20260510141505 71 268 2.0 6.0 0.00 0.00 0.00 43 1014.7
20260510141006 71 257 2.0 6.0 0.00 0.00 0.00 43 1014.7
20260510140505 71 249 4.0 6.0 0.00 0.00 0.00 43 1014.7
20260510140005 71 253 3.0 6.0 0.00 0.00 0.00 42 1014.7
20260510135505 71 271 3.0 9.0 0.00 0.00 0.00 44 1014.7
20260510135005 71 272 4.0 9.0 0.00 0.00 0.00 44 1014.7
20260510134505 71 251 4.0 6.0 0.00 0.00 0.00 44 1014.7
20260510134005 71 211 0.0 5.0 0.00 0.00 0.00 44 1014.7
20260510133506 71 220 3.0 5.0 0.00 0.00 0.00 45 1014.7
20260510133005 71 202 1.0 5.0 0.00 0.00 0.00 47 1014.7
20260510132505 71 198 2.0 5.0 0.00 0.00 0.00 47 1015.7
20260510132005 70 204 2.0 4.0 0.00 0.00 0.00 48 1015.7
20260510131505 70 195 2.0 4.0 0.00 0.00 0.00 48 1015.7
20260510131005 70 213 3.0 4.0 0.00 0.00 0.00 48 1015.7
20260510130005 70 279 2.0 4.0 0.00 0.00 0.00 46 1015.7
20260510125505 70 275 2.0 6.0 0.00 0.00 0.00 44 1015.7
20260510124005 71 281 2.0 8.0 0.00 0.00 0.00 45 1015.7
20260510123505 71 264 3.0 8.0 0.00 0.00 0.00 44 1015.7
20260510122506 71 281 4.0 9.0 0.00 0.00 0.00 45 1015.7
20260510122005 72 224 5.0 9.0 0.00 0.00 0.00 46 1015.7
20260510121505 72 201 3.0 8.0 0.00 0.00 0.00 45 1015.7
20260510121005 72 252 4.0 9.0 0.00 0.00 0.00 47 1015.7
20260510120505 72 270 4.0 10.0 0.00 0.00 0.00 46 1015.7
20260510120005 72 280 5.0 10.0 0.00 0.00 0.00 47 1015.7
20260510115505 72 286 2.0 9.0 0.00 0.00 0.00 48 1015.7
20260510115005 73 298 6.0 9.0 0.00 0.00 0.00 48 1015.7
20260510114505 73 271 7.0 9.0 0.00 0.00 0.00 49 1015.7
20260510114006 73 257 4.0 9.0 0.00 0.00 0.00 49 1016.7
20260510113005 73 286 3.0 10.0 0.00 0.00 0.00 48 1016.7
20260510112505 73 281 3.0 10.0 0.00 0.00 0.00 48 1015.7
20260510111505 73 303 7.0 11.0 0.00 0.00 0.00 48 1015.7
20260510110505 73 299 8.0 13.0 0.00 0.00 0.00 49 1015.7
20260510110005 73 284 4.0 12.0 0.00 0.00 0.00 50 1015.7
20260510105505 73 292 5.0 12.0 0.00 0.00 0.00 48 1015.7
20260510105005 74 299 6.0 12.0 0.00 0.00 0.00 49 1015.7
20260510104505 74 279 4.0 11.0 0.00 0.00 0.00 50 1015.7
20260510104005 74 288 6.0 11.0 0.00 0.00 0.00 50 1015.7
20260510103505 74 283 4.0 11.0 0.00 0.00 0.00 51 1015.7
20260510103005 74 296 4.0 11.0 0.00 0.00 0.00 51 1015.7
20260510102505 74 315 8.0 11.0 0.00 0.00 0.00 52 1015.7
20260510101505 73 293 6.0 11.0 0.00 0.00 0.00 54 1015.7
20260510101005 73 292 5.0 14.0 0.00 0.00 0.00 55 1015.7
20260510100505 72 292 4.0 14.0 0.00 0.00 0.00 55 1015.7
20260510100005 72 226 3.0 5.0 0.00 0.00 0.00 55 1015.7
20260510095505 72 223 3.0 5.0 0.00 0.00 0.00 55 1015.7
20260510094505 71 310 4.0 5.0 0.00 0.00 0.00 57 1015.7
20260510094005 70 303 2.0 4.0 0.00 0.00 0.00 57 1015.7
20260510093505 70 43 2.0 3.0 0.00 0.00 0.00 58 1015.7
20260510093005 70 106 1.0 2.0 0.00 0.00 0.00 58 1015.7
20260510092505 69 127 1.0 2.0 0.00 0.00 0.00 59 1015.7
20260510092005 69 151 1.0 2.0 0.00 0.00 0.00 60 1015.7
20260510091505 69 45 1.0 2.0 0.00 0.00 0.00 61 1015.7
20260510091005 68 42 0.0 2.0 0.00 0.00 0.00 61 1015.7
20260510090505 68 36 0.0 2.0 0.00 0.00 0.00 62 1015.7
20260510085005 67 153 2.0 4.0 0.00 0.00 0.00 62 1016.7
20260510084505 67 179 2.0 4.0 0.00 0.00 0.00 62 1016.7
20260510083505 66 175 1.0 3.0 0.00 0.00 0.00 62 1016.7
20260510083005 66 146 2.0 3.0 0.00 0.00 0.00 63 1016.7
20260510082505 66 276 1.0 3.0 0.00 0.00 0.00 64 1015.7
20260510082005 66 296 0.0 4.0 0.00 0.00 0.00 63 1015.7
20260510081505 66 296 3.0 4.0 0.00 0.00 0.00 65 1015.7
20260510081005 66 236 0.0 3.0 0.00 0.00 0.00 64 1016.7
20260510080505 65 208 0.0 3.0 0.00 0.00 0.00 63 1016.7
20260510080005 65 126 0.0 4.0 0.00 0.00 0.00 64 1016.7
20260510075505 65 152 2.0 5.0 0.00 0.00 0.00 65 1016.7
20260510075005 65 149 3.0 5.0 0.00 0.00 0.00 65 1016.7
20260510074505 64 106 1.0 4.0 0.00 0.00 0.00 66 1016.7
20260510074005 64 123 1.0 6.0 0.00 0.00 0.00 68 1016.7
20260510073505 64 105 4.0 6.0 0.00 0.00 0.00 67 1016.7
20260510073005 64 95 4.0 6.0 0.00 0.00 0.00 67 1016.7
20260510072505 64 97 5.0 9.0 0.00 0.00 0.00 69 1015.7
20260510072005 63 100 5.0 9.0 0.00 0.00 0.00 70 1015.7
20260510071505 62 99 4.0 7.0 0.00 0.00 0.00 74 1015.7
20260510071005 61 118 3.0 6.0 0.00 0.00 0.00 75 1016.7
20260510070505 61 185 0.0 4.0 0.00 0.00 0.00 76 1016.7
20260510070005 60 211 2.0 3.0 0.00 0.00 0.00 76 1016.7
20260510065505 60 301 0.0 3.0 0.00 0.00 0.00 78 1016.7
20260510065005 60 271 0.0 3.0 0.00 0.00 0.00 79 1016.7
20260510064505 60 253 2.0 3.0 0.00 0.00 0.00 79 1016.7
20260510064005 59 189 2.0 4.0 0.00 0.00 0.00 80 1016.7
20260510063505 59 170 0.0 4.0 0.00 0.00 0.00 80 1016.7
20260510063005 59 156 2.0 4.0 0.00 0.00 0.00 84 1016.7
20260510062505 58 279 0.0 2.0 0.00 0.00 0.00 85 1016.7
20260510061006 57 308 0.0 3.0 0.00 0.00 0.00 88 1016.7
20260510060552 57 304 2.0 3.0 0.00 0.00 0.00 89 1016.7
20260510060006 57 274 0.0 2.0 0.00 0.00 0.00 89 1016.7
20260510055505 56 294 1.0 2.0 0.00 0.00 0.00 90 1016.7
20260510055005 56 326 0.0 2.0 0.00 0.00 0.00 90 1016.7
20260510054505 55 55 0.0 2.0 0.00 0.00 0.00 90 1016.7
20260510054005 55 46 0.0 2.0 0.00 0.00 0.00 92 1017.7
20260510053505 55 51 0.0 2.0 0.00 0.00 0.00 92 1017.7
20260510053005 54 66 1.0 2.0 0.00 0.00 0.00 93 1017.7
20260510052005 53 179 0.0 2.0 0.00 0.00 0.00 92 1017.7
20260510051504 53 194 0.0 2.0 0.00 0.00 0.00 92 1017.7
20260510051005 53 314 0.0 2.0 0.00 0.00 0.00 90 1017.7
20260510050005 52 0 0.0 0.0 0.00 0.00 0.00 90 1017.7
20260510045005 51 158 0.0 2.0 0.00 0.00 0.00 90 1017.7
20260510044505 51 255 0.0 2.0 0.00 0.00 0.00 92 1017.7
20260510043505 51 350 0.0 2.0 0.00 0.00 0.00 88 1017.7
20260510043005 51 90 0.0 2.0 0.00 0.00 0.00 89 1017.7
20260510042504 51 1 0.0 2.0 0.00 0.00 0.00 89 1017.7
20260510042005 51 1 1.0 2.0 0.00 0.00 0.00 88 1017.7
20260510041005 51 181 0.0 2.0 0.00 0.00 0.00 88 1017.7
20260510040504 50 112 0.0 2.0 0.00 0.00 0.00 87 1017.7
20260510035505 50 57 0.0 2.0 0.00 0.00 0.00 87 1017.7
20260510035005 50 56 1.0 2.0 0.00 0.00 0.00 87 1017.7
20260510034505 50 270 0.0 2.0 0.00 0.00 0.00 87 1017.7
20260510033505 50 292 0.0 2.0 0.00 0.00 0.00 87 1017.7
20260510032505 50 0 0.0 0.0 0.00 0.00 0.00 87 1018.8
20260510032005 51 337 0.0 2.0 0.00 0.00 0.00 87 1018.8
20260510031005 51 158 0.0 2.0 0.00 0.00 0.00 87 1017.7
20260510030504 51 158 1.0 2.0 0.00 0.00 0.00 88 1017.7
20260510030005 51 0 0.0 0.0 0.00 0.00 0.00 87 1017.7
20260510025504 51 0 0.0 0.0 0.00 0.00 0.00 87 1017.7
20260510025005 51 0 0.0 0.0 0.00 0.00 0.00 87 1017.7
20260510024504 51 0 0.0 0.0 0.00 0.00 0.00 87 1017.7
20260510024005 51 158 0.0 1.0 0.00 0.00 0.00 87 1017.7
20260510023505 51 158 0.0 1.0 0.00 0.00 0.00 87 1017.7
20260510023005 51 158 0.0 2.0 0.00 0.00 0.00 86 1017.7
20260510022505 51 158 0.0 2.0 0.00 0.00 0.00 86 1016.7
20260510021506 51 158 0.0 1.0 0.00 0.00 0.00 86 1016.7
20260510020504 51 181 0.0 2.0 0.00 0.00 0.00 86 1017.7
20260510020005 51 270 0.0 2.0 0.00 0.00 0.00 86 1017.7
20260510015504 51 336 0.0 2.0 0.00 0.00 0.00 85 1016.7
20260510014505 51 22 0.0 2.0 0.00 0.00 0.00 85 1016.7
20260510014004 51 0 0.0 0.0 0.00 0.00 0.00 85 1017.7
20260510013505 51 0 0.0 0.0 0.00 0.00 0.00 85 1017.7
20260510013004 51 0 0.0 0.0 0.00 0.00 0.00 85 1017.7
20260510012505 51 0 0.0 0.0 0.00 0.00 0.00 85 1017.7
20260510011505 51 221 0.0 2.0 0.00 0.00 0.00 85 1017.7
20260510011005 52 62 0.0 2.0 0.00 0.00 0.00 85 1017.7
20260510010505 52 25 0.0 2.0 0.00 0.00 0.00 84 1017.7
20260510005505 52 123 0.0 2.0 0.00 0.00 0.00 85 1017.7
20260510004505 52 158 0.0 2.0 0.00 0.00 0.00 85 1017.7
20260510004005 52 45 0.0 2.0 0.00 0.00 0.00 85 1017.7
20260510003505 52 60 0.0 2.0 0.00 0.00 0.00 84 1017.7
20260510002505 52 14 0.0 3.0 0.00 0.00 0.00 82 1017.7
20260510002005 52 7 2.0 2.0 0.00 0.00 0.00 81 1017.7
20260510001505 52 158 0.0 2.0 0.00 0.00 0.00 82 1017.7
20260510001005 52 158 2.0 2.0 0.00 0.00 0.00 82 1017.7
20260510000505 52 337 0.0 1.0 0.00 0.00 0.00 82 1017.7
20260510000005 53 0 0.0 0.0 0.00 0.00 0.00 82 1017.7
20260509235505 53 0 0.0 0.0 0.00 0.00 0.00 82 1017.7
20260509235004 53 112 0.0 2.0 0.00 0.00 0.00 82 1017.7
20260509234505 53 112 0.0 2.0 0.00 0.00 0.00 82 1017.7
20260509234004 53 102 0.0 3.0 0.00 0.00 0.00 81 1018.8
20260509233505 53 102 1.0 4.0 0.00 0.00 0.00 82 1018.8
20260509233004 53 101 2.0 4.0 0.00 0.00 0.00 82 1018.8
20260509232505 53 89 4.0 4.0 0.00 0.00 0.00 81 1018.8
20260509232004 53 72 1.0 2.0 0.00 0.00 0.00 81 1018.8
20260509231004 53 158 0.0 2.0 0.00 0.00 0.00 81 1018.8
20260509230505 53 170 0.0 2.0 0.00 0.00 0.00 81 1018.8
20260509230004 53 181 2.0 2.0 0.00 0.00 0.00 80 1018.8
20260509225505 53 113 0.0 2.0 0.00 0.00 0.00 79 1018.8
20260509225004 54 103 0.0 3.0 0.00 0.00 0.00 80 1018.8
20260509224505 54 86 2.0 3.0 0.00 0.00 0.00 80 1018.8
20260509224005 54 65 2.0 4.0 0.00 0.00 0.00 81 1018.8
20260509223505 54 50 3.0 4.0 0.00 0.00 0.00 78 1018.8
20260509223005 54 22 0.0 2.0 0.00 0.00 0.00 78 1018.8
20260509222504 54 188 0.0 3.0 0.00 0.00 0.00 79 1017.7
20260509222005 54 219 0.0 3.0 0.00 0.00 0.00 79 1017.7
20260509221505 54 280 2.0 3.0 0.00 0.00 0.00 78 1017.7
20260509221005 54 323 2.0 2.0 0.00 0.00 0.00 77 1018.8
20260509220505 54 109 0.0 2.0 0.00 0.00 0.00 76 1018.8
20260509220011 54 111 0.0 3.0 0.00 0.00 0.00 76 1018.8
20260509215507 54 99 2.0 3.0 0.00 0.00 0.00 77 1017.7
20260509215006 54 79 2.0 3.0 0.00 0.00 0.00 77 1017.7
20260509214007 55 69 1.0 2.0 0.00 0.00 0.00 76 1017.7
20260509213506 55 0 0.0 0.0 0.00 0.00 0.00 76 1017.7
20260509213007 55 90 0.0 2.0 0.00 0.00 0.00 76 1017.7
20260509212506 55 90 0.0 2.0 0.00 0.00 0.00 76 1017.7
20260509212006 55 0 0.0 0.0 0.00 0.00 0.00 76 1017.7
20260509211006 56 85 0.0 2.0 0.00 0.00 0.00 76 1017.7
20260509210507 56 77 1.0 2.0 0.00 0.00 0.00 76 1017.7
20260509210006 56 67 1.0 4.0 0.00 0.00 0.00 73 1017.7
20260509205507 56 67 1.0 4.0 0.00 0.00 0.00 73 1018.8
20260509205006 56 70 3.0 4.0 0.00 0.00 0.00 73 1018.8
20260509204507 56 84 2.0 2.0 0.00 0.00 0.00 73 1018.8
20260509204006 56 90 0.0 2.0 0.00 0.00 0.00 73 1017.7
20260509203006 57 0 0.0 0.0 0.00 0.00 0.00 72 1017.7
20260509202507 57 0 0.0 0.0 0.00 0.00 0.00 71 1017.7
20260509202006 57 0 0.0 0.0 0.00 0.00 0.00 72 1017.7
20260509201506 58 0 0.0 0.0 0.00 0.00 0.00 70 1017.7
20260509201007 58 0 0.0 0.0 0.00 0.00 0.00 70 1017.7
20260509200007 58 258 0.0 2.0 0.00 0.00 0.00 70 1017.7
20260509195506 58 111 0.0 2.0 0.00 0.00 0.00 68 1017.7
20260509195007 59 112 0.0 2.0 0.00 0.00 0.00 68 1017.7
20260509194506 59 111 0.0 2.0 0.00 0.00 0.00 68 1017.7
20260509194006 59 0 0.0 0.0 0.00 0.00 0.00 66 1017.7
20260509193506 60 68 0.0 2.0 0.00 0.00 0.00 65 1017.7
20260509193006 60 56 0.0 2.0 0.00 0.00 0.00 66 1017.7
20260509192507 60 46 0.0 2.0 0.00 0.00 0.00 65 1017.7
20260509192006 60 0 0.0 0.0 0.00 0.00 0.00 65 1017.7
20260509191507 61 0 0.0 0.0 0.00 0.00 0.00 62 1017.7
20260509191006 61 0 0.0 0.0 0.00 0.00 0.00 62 1017.7
20260509190007 62 270 0.0 2.0 0.00 0.00 0.00 61 1017.7
20260509185507 62 270 0.0 2.0 0.00 0.00 0.00 61 1017.7
20260509185006 62 0 0.0 0.0 0.00 0.00 0.00 61 1017.7
20260509184507 63 0 0.0 0.0 0.00 0.00 0.00 59 1017.7
20260509184006 63 0 0.0 0.0 0.00 0.00 0.00 60 1017.7
20260509183506 64 292 0.0 2.0 0.00 0.00 0.00 59 1017.7
20260509183006 64 277 0.0 2.0 0.00 0.00 0.00 57 1017.7
20260509182007 65 246 0.0 2.0 0.00 0.00 0.00 56 1017.7
20260509181506 66 245 1.0 2.0 0.00 0.00 0.00 56 1017.7
20260509181007 66 181 0.0 1.0 0.00 0.00 0.00 55 1017.7
20260509180506 66 203 0.0 2.0 0.00 0.00 0.00 54 1017.7
20260509180006 67 218 0.0 2.0 0.00 0.00 0.00 54 1017.7
20260509175507 68 249 0.0 3.0 0.00 0.00 0.00 51 1017.7
20260509175006 68 247 1.0 3.0 0.00 0.00 0.00 51 1017.7
20260509174506 68 234 0.0 3.0 0.00 0.00 0.00 50 1017.7
20260509174006 69 225 2.0 3.0 0.00 0.00 0.00 50 1017.7